date,time,SUV Intensity [MED/Hr],UV Index,Daily total [MED],Since Last [MED]
24/08/2023,00:00:27,-0.001,0.0,0.0,0.0
24/08/2023,00:01:28,0.000,0.0,0.0,0.0
24/08/2023,00:02:27,0.000,0.0,0.0,0.0
24/08/2023,00:03:28,-0.001,0.0,0.0,0.0
24/08/2023,00:04:27,-0.000,0.0,0.0,0.0
24/08/2023,00:05:28,0.000,0.0,0.0,0.0
24/08/2023,00:06:27,0.000,0.0,0.0,0.0
24/08/2023,00:07:27,0.000,0.0,0.0,0.0
24/08/2023,00:08:27,0.000,0.0,0.0,0.0
24/08/2023,00:09:27,0.000,0.0,0.0,0.0
24/08/2023,00:10:27,0.001,0.0,0.0,0.0
24/08/2023,00:11:28,0.000,0.0,0.0,0.0
24/08/2023,00:12:27,-0.000,0.0,0.0,0.0
24/08/2023,00:13:27,0.000,0.0,0.0,0.0
24/08/2023,00:14:27,0.000,0.0,0.0,0.0
24/08/2023,00:15:25,0.000,0.0,0.0,0.0
24/08/2023,00:16:26,0.000,0.0,0.0,0.0
24/08/2023,00:17:27,0.000,0.0,0.0,0.0
24/08/2023,00:18:27,0.000,0.0,0.0,0.0
24/08/2023,00:19:28,0.000,0.0,0.0,0.0
24/08/2023,00:20:28,0.000,0.0,0.0,0.0
24/08/2023,00:21:27,0.000,0.0,0.0,0.0
24/08/2023,00:22:27,0.000,0.0,0.0,0.0
24/08/2023,00:23:27,0.001,0.0,0.0,0.0
24/08/2023,00:24:28,0.000,0.0,0.0,0.0
24/08/2023,00:25:27,0.001,0.0,0.0,0.0
24/08/2023,00:26:27,0.001,0.0,0.0,0.0
24/08/2023,00:27:27,0.001,0.0,0.0,0.0
24/08/2023,00:28:28,0.000,0.0,0.0,0.0
24/08/2023,00:29:27,-0.001,0.0,0.0,0.0
24/08/2023,00:30:28,-0.001,0.0,0.0,0.0
24/08/2023,00:31:28,-0.001,0.0,0.0,0.0
24/08/2023,00:32:28,0.000,0.0,0.0,0.0
24/08/2023,00:33:28,0.000,0.0,0.0,0.0
24/08/2023,00:34:27,-0.001,0.0,0.0,0.0
24/08/2023,00:35:28,0.000,0.0,0.0,0.0
24/08/2023,00:36:27,-0.000,0.0,0.0,0.0
24/08/2023,00:37:27,0.000,0.0,0.0,0.0
24/08/2023,00:38:25,0.000,0.0,0.0,0.0
24/08/2023,00:39:25,-0.000,0.0,0.0,0.0
24/08/2023,00:40:27,0.000,0.0,0.0,0.0
24/08/2023,00:41:28,-0.000,0.0,0.0,0.0
24/08/2023,00:42:27,0.000,0.0,0.0,0.0
24/08/2023,00:43:28,0.001,0.0,0.0,0.0
24/08/2023,00:44:27,0.000,0.0,0.0,0.0
24/08/2023,00:45:28,0.000,0.0,0.0,0.0
24/08/2023,00:46:27,0.001,0.0,0.0,0.0
24/08/2023,00:47:27,0.000,0.0,0.0,0.0
24/08/2023,00:48:27,0.000,0.0,0.0,0.0
24/08/2023,00:49:27,0.000,0.0,0.0,0.0
24/08/2023,00:50:27,0.000,0.0,0.0,0.0
24/08/2023,00:51:28,-0.000,0.0,0.0,0.0
24/08/2023,00:52:27,0.000,0.0,0.0,0.0
24/08/2023,00:53:28,0.000,0.0,0.0,0.0
24/08/2023,00:54:27,0.000,0.0,0.0,0.0
24/08/2023,00:55:28,0.000,0.0,0.0,0.0
24/08/2023,00:56:27,0.000,0.0,0.0,0.0
24/08/2023,00:57:28,0.001,0.0,0.0,0.0
24/08/2023,00:58:27,0.000,0.0,0.0,0.0
24/08/2023,00:59:28,0.001,0.0,0.0,0.0
24/08/2023,01:00:27,0.000,0.0,0.0,0.0
24/08/2023,01:01:28,0.001,0.0,0.0,0.0
24/08/2023,01:02:27,0.000,0.0,0.0,0.0
24/08/2023,01:03:28,0.001,0.0,0.0,0.0
24/08/2023,01:04:27,0.000,0.0,0.0,0.0
24/08/2023,01:05:28,0.001,0.0,0.0,0.0
24/08/2023,01:06:27,0.000,0.0,0.0,0.0
24/08/2023,01:07:27,0.000,0.0,0.0,0.0
24/08/2023,01:08:28,-0.000,0.0,0.0,0.0
24/08/2023,01:09:27,-0.000,0.0,0.0,0.0
24/08/2023,01:10:27,0.000,0.0,0.0,0.0
24/08/2023,01:11:27,0.000,0.0,0.0,0.0
24/08/2023,01:12:28,0.001,0.0,0.0,0.0
24/08/2023,01:13:27,0.000,0.0,0.0,0.0
24/08/2023,01:14:28,0.001,0.0,0.0,0.0
24/08/2023,01:15:27,0.000,0.0,0.0,0.0
24/08/2023,01:16:28,-0.001,0.0,0.0,0.0
24/08/2023,01:17:27,0.001,0.0,0.0,0.0
24/08/2023,01:18:27,-0.001,0.0,0.0,0.0
24/08/2023,01:19:28,0.000,0.0,0.0,0.0
24/08/2023,01:20:27,0.000,0.0,0.0,0.0
24/08/2023,01:21:28,0.001,0.0,0.0,0.0
24/08/2023,01:22:27,0.000,0.0,0.0,0.0
24/08/2023,01:23:27,0.000,0.0,0.0,0.0
24/08/2023,01:24:27,0.001,0.0,0.0,0.0
24/08/2023,01:25:27,-0.000,0.0,0.0,0.0
24/08/2023,01:26:28,0.000,0.0,0.0,0.0
24/08/2023,01:27:27,0.000,0.0,0.0,0.0
24/08/2023,01:28:28,0.000,0.0,0.0,0.0
24/08/2023,01:29:26,-0.000,0.0,0.0,0.0
24/08/2023,01:30:50,0.001,0.0,0.0,0.0
24/08/2023,01:31:27,0.001,0.0,0.0,0.0
24/08/2023,01:32:27,0.000,0.0,0.0,0.0
24/08/2023,01:33:27,0.000,0.0,0.0,0.0
24/08/2023,01:34:28,-0.001,0.0,0.0,0.0
24/08/2023,01:35:27,-0.001,0.0,0.0,0.0
24/08/2023,01:36:28,0.000,0.0,0.0,0.0
24/08/2023,01:37:27,0.001,0.0,0.0,0.0
24/08/2023,01:38:27,-0.001,0.0,0.0,0.0
24/08/2023,01:39:27,0.001,0.0,0.0,0.0
24/08/2023,01:40:27,0.000,0.0,0.0,0.0
24/08/2023,01:41:28,0.000,0.0,0.0,0.0
24/08/2023,01:42:27,0.001,0.0,0.0,0.0
24/08/2023,01:43:27,0.000,0.0,0.0,0.0
24/08/2023,01:44:27,0.001,0.0,0.0,0.0
24/08/2023,01:45:27,-0.001,0.0,0.0,0.0
24/08/2023,01:46:28,0.000,0.0,0.0,0.0
24/08/2023,01:47:27,0.000,0.0,0.0,0.0
24/08/2023,01:48:27,0.001,0.0,0.0,0.0
24/08/2023,01:49:28,-0.001,0.0,0.0,0.0
24/08/2023,01:50:27,0.001,0.0,0.0,0.0
24/08/2023,01:51:28,0.000,0.0,0.0,0.0
24/08/2023,01:52:27,0.000,0.0,0.0,0.0
24/08/2023,01:53:27,0.000,0.0,0.0,0.0
24/08/2023,01:54:27,0.000,0.0,0.0,0.0
24/08/2023,01:55:26,0.001,0.0,0.0,0.0
24/08/2023,01:56:25,0.001,0.0,0.0,0.0
24/08/2023,01:57:28,-0.000,0.0,0.0,0.0
24/08/2023,01:58:27,0.000,0.0,0.0,0.0
24/08/2023,01:59:27,0.000,0.0,0.0,0.0
24/08/2023,02:00:28,0.000,0.0,0.0,0.0
24/08/2023,02:01:27,-0.001,0.0,0.0,0.0
24/08/2023,02:02:28,0.000,0.0,0.0,0.0
24/08/2023,02:03:27,0.001,0.0,0.0,0.0
24/08/2023,02:04:27,-0.001,0.0,0.0,0.0
24/08/2023,02:05:27,-0.000,0.0,0.0,0.0
24/08/2023,02:06:27,0.000,0.0,0.0,0.0
24/08/2023,02:07:28,0.000,0.0,0.0,0.0
24/08/2023,02:08:27,0.000,0.0,0.0,0.0
24/08/2023,02:09:28,0.000,0.0,0.0,0.0
24/08/2023,02:10:29,-0.000,0.0,0.0,0.0
24/08/2023,02:11:28,0.000,0.0,0.0,0.0
24/08/2023,02:12:28,0.000,0.0,0.0,0.0
24/08/2023,02:13:28,0.001,0.0,0.0,0.0
24/08/2023,02:14:27,0.000,0.0,0.0,0.0
24/08/2023,02:15:28,0.000,0.0,0.0,0.0
24/08/2023,02:16:27,0.001,0.0,0.0,0.0
24/08/2023,02:17:28,0.001,0.0,0.0,0.0
24/08/2023,02:18:27,0.001,0.0,0.0,0.0
24/08/2023,02:19:27,0.000,0.0,0.0,0.0
24/08/2023,02:20:27,0.000,0.0,0.0,0.0
24/08/2023,02:21:28,0.000,0.0,0.0,0.0
24/08/2023,02:22:27,0.000,0.0,0.0,0.0
24/08/2023,02:23:28,0.000,0.0,0.0,0.0
24/08/2023,02:24:27,0.000,0.0,0.0,0.0
24/08/2023,02:25:28,0.000,0.0,0.0,0.0
24/08/2023,02:26:27,-0.000,0.0,0.0,0.0
24/08/2023,02:27:28,0.001,0.0,0.0,0.0
24/08/2023,02:28:27,0.001,0.0,0.0,0.0
24/08/2023,02:29:28,0.000,0.0,0.0,0.0
24/08/2023,02:30:27,-0.000,0.0,0.0,0.0
24/08/2023,02:31:28,0.001,0.0,0.0,0.0
24/08/2023,02:32:27,0.001,0.0,0.0,0.0
24/08/2023,02:33:27,0.001,0.0,0.0,0.0
24/08/2023,02:34:27,0.001,0.0,0.0,0.0
24/08/2023,02:35:27,0.001,0.0,0.0,0.0
24/08/2023,02:36:29,0.001,0.0,0.0,0.0
24/08/2023,02:37:25,0.001,0.0,0.0,0.0
24/08/2023,02:38:28,0.001,0.0,0.0,0.0
24/08/2023,02:39:27,0.001,0.0,0.0,0.0
24/08/2023,02:40:27,0.001,0.0,0.0,0.0
24/08/2023,02:41:27,0.001,0.0,0.0,0.0
24/08/2023,02:42:28,0.001,0.0,0.0,0.0
24/08/2023,02:43:58,0.000,0.0,0.0,0.0
24/08/2023,02:45:28,0.000,0.0,0.0,0.0
24/08/2023,02:46:28,0.001,0.0,0.0,0.0
24/08/2023,02:47:27,0.001,0.0,0.0,0.0
24/08/2023,02:48:28,0.001,0.0,0.0,0.0
24/08/2023,02:49:27,0.001,0.0,0.0,0.0
24/08/2023,02:50:28,0.001,0.0,0.0,0.0
24/08/2023,02:51:28,0.000,0.0,0.0,0.0
24/08/2023,02:52:27,0.001,0.0,0.0,0.0
24/08/2023,02:53:28,0.001,0.0,0.0,0.0
24/08/2023,02:54:27,-0.000,0.0,0.0,0.0
24/08/2023,02:55:28,-0.000,0.0,0.0,0.0
24/08/2023,02:56:27,-0.000,0.0,0.0,0.0
24/08/2023,02:57:28,0.001,0.0,0.0,0.0
24/08/2023,02:58:27,0.001,0.0,0.0,0.0
24/08/2023,02:59:28,0.001,0.0,0.0,0.0
24/08/2023,03:00:28,0.001,0.0,0.0,0.0
24/08/2023,03:01:28,-0.000,0.0,0.0,0.0
24/08/2023,03:02:28,0.001,0.0,0.0,0.0
24/08/2023,03:03:27,0.001,0.0,0.0,0.0
24/08/2023,03:04:28,0.001,0.0,0.0,0.0
24/08/2023,03:05:28,0.000,0.0,0.0,0.0
24/08/2023,03:06:28,0.001,0.0,0.0,0.0
24/08/2023,03:07:27,0.001,0.0,0.0,0.0
24/08/2023,03:08:28,0.001,0.0,0.0,0.0
24/08/2023,03:09:27,0.001,0.0,0.0,0.0
24/08/2023,03:10:28,0.001,0.0,0.0,0.0
24/08/2023,03:11:28,0.001,0.0,0.0,0.0
24/08/2023,03:12:27,0.001,0.0,0.0,0.0
24/08/2023,03:13:28,0.001,0.0,0.0,0.0
24/08/2023,03:14:28,0.001,0.0,0.0,0.0
24/08/2023,03:15:27,0.001,0.0,0.0,0.0
24/08/2023,03:16:28,0.000,0.0,0.0,0.0
24/08/2023,03:17:27,0.001,0.0,0.0,0.0
24/08/2023,03:18:27,0.000,0.0,0.0,0.0
24/08/2023,03:19:27,0.001,0.0,0.0,0.0
24/08/2023,03:20:27,0.000,0.0,0.0,0.0
24/08/2023,03:21:27,0.001,0.0,0.0,0.0
24/08/2023,03:22:28,0.001,0.0,0.0,0.0
24/08/2023,03:23:28,0.001,0.0,0.0,0.0
24/08/2023,03:24:27,0.002,0.0,0.0,0.0
24/08/2023,03:25:28,0.001,0.0,0.0,0.0
24/08/2023,03:26:28,0.001,0.0,0.0,0.0
24/08/2023,03:27:27,-0.000,0.0,0.0,0.0
24/08/2023,03:28:28,0.001,0.0,0.0,0.0
24/08/2023,03:29:27,0.001,0.0,0.0,0.0
24/08/2023,03:30:28,0.001,0.0,0.0,0.0
24/08/2023,03:31:28,0.001,0.0,0.0,0.0
24/08/2023,03:32:27,0.001,0.0,0.0,0.0
24/08/2023,03:33:27,0.001,0.0,0.0,0.0
24/08/2023,03:34:28,0.001,0.0,0.0,0.0
24/08/2023,03:35:27,0.001,0.0,0.0,0.0
24/08/2023,03:36:28,0.001,0.0,0.0,0.0
24/08/2023,03:37:28,-0.000,0.0,0.0,0.0
24/08/2023,03:38:28,0.001,0.0,0.0,0.0
24/08/2023,03:39:27,0.001,0.0,0.0,0.0
24/08/2023,03:40:28,-0.000,0.0,0.0,0.0
24/08/2023,03:41:27,0.001,0.0,0.0,0.0
24/08/2023,03:42:27,0.001,0.0,0.0,0.0
24/08/2023,03:43:25,0.001,0.0,0.0,0.0
24/08/2023,03:44:28,0.001,0.0,0.0,0.0
24/08/2023,03:45:27,0.001,0.0,0.0,0.0
24/08/2023,03:46:28,0.001,0.0,0.0,0.0
24/08/2023,03:47:28,0.001,0.0,0.0,0.0
24/08/2023,03:48:28,-0.000,0.0,0.0,0.0
24/08/2023,03:49:27,0.001,0.0,0.0,0.0
24/08/2023,03:50:28,0.001,0.0,0.0,0.0
24/08/2023,03:51:28,0.001,0.0,0.0,0.0
24/08/2023,03:52:27,0.001,0.0,0.0,0.0
24/08/2023,03:53:28,0.001,0.0,0.0,0.0
24/08/2023,03:54:26,0.001,0.0,0.0,0.0
24/08/2023,03:55:25,0.001,0.0,0.0,0.0
24/08/2023,03:56:27,0.001,0.0,0.0,0.0
24/08/2023,03:57:27,0.001,0.0,0.0,0.0
24/08/2023,03:58:28,0.001,0.0,0.0,0.0
24/08/2023,03:59:28,0.001,0.0,0.0,0.0
24/08/2023,04:00:27,0.001,0.0,0.0,0.0
24/08/2023,04:01:28,0.001,0.0,0.0,0.0
24/08/2023,04:02:25,0.000,0.0,0.0,0.0
24/08/2023,04:03:26,0.001,0.0,0.0,0.0
24/08/2023,04:04:28,0.001,0.0,0.0,0.0
24/08/2023,04:05:28,0.001,0.0,0.0,0.0
24/08/2023,04:06:28,0.001,0.0,0.0,0.0
24/08/2023,04:07:27,0.001,0.0,0.0,0.0
24/08/2023,04:08:28,-0.000,0.0,0.0,0.0
24/08/2023,04:09:28,0.001,0.0,0.0,0.0
24/08/2023,04:10:26,0.001,0.0,0.0,0.0
24/08/2023,04:11:25,0.001,0.0,0.0,0.0
24/08/2023,04:12:27,0.001,0.0,0.0,0.0
24/08/2023,04:13:28,0.001,0.0,0.0,0.0
24/08/2023,04:14:27,0.001,0.0,0.0,0.0
24/08/2023,04:15:28,0.001,0.0,0.0,0.0
24/08/2023,04:16:28,0.001,0.0,0.0,0.0
24/08/2023,04:17:27,0.001,0.0,0.0,0.0
24/08/2023,04:18:28,0.001,0.0,0.0,0.0
24/08/2023,04:19:28,0.001,0.0,0.0,0.0
24/08/2023,04:20:28,0.000,0.0,0.0,0.0
24/08/2023,04:21:25,0.001,0.0,0.0,0.0
24/08/2023,04:22:26,0.001,0.0,0.0,0.0
24/08/2023,04:23:27,0.000,0.0,0.0,0.0
24/08/2023,04:24:28,0.001,0.0,0.0,0.0
24/08/2023,04:25:28,0.001,0.0,0.0,0.0
24/08/2023,04:26:27,0.001,0.0,0.0,0.0
24/08/2023,04:27:27,0.001,0.0,0.0,0.0
24/08/2023,04:28:27,0.001,0.0,0.0,0.0
24/08/2023,04:29:28,0.001,0.0,0.0,0.0
24/08/2023,04:30:28,0.001,0.0,0.0,0.0
24/08/2023,04:31:28,0.001,0.0,0.0,0.0
24/08/2023,04:32:28,0.001,0.0,0.0,0.0
24/08/2023,04:33:27,0.001,0.0,0.0,0.0
24/08/2023,04:34:28,0.000,0.0,0.0,0.0
24/08/2023,04:35:28,0.001,0.0,0.0,0.0
24/08/2023,04:36:26,0.001,0.0,0.0,0.0
24/08/2023,04:37:25,0.001,0.0,0.0,0.0
24/08/2023,04:38:27,0.001,0.0,0.0,0.0
24/08/2023,04:39:28,0.001,0.0,0.0,0.0
24/08/2023,04:40:28,0.001,0.0,0.0,0.0
24/08/2023,04:41:28,0.001,0.0,0.0,0.0
24/08/2023,04:42:25,0.001,0.0,0.0,0.0
24/08/2023,04:43:26,0.001,0.0,0.0,0.0
24/08/2023,04:44:28,0.001,0.0,0.0,0.0
24/08/2023,04:45:28,0.001,0.0,0.0,0.0
24/08/2023,04:46:28,0.001,0.0,0.0,0.0
24/08/2023,04:47:27,0.001,0.0,0.0,0.0
24/08/2023,04:48:28,0.001,0.0,0.0,0.0
24/08/2023,04:49:28,0.001,0.0,0.0,0.0
24/08/2023,04:50:27,0.001,0.0,0.0,0.0
24/08/2023,04:51:28,0.001,0.0,0.0,0.0
24/08/2023,04:52:28,0.001,0.0,0.0,0.0
24/08/2023,04:53:28,0.001,0.0,0.0,0.0
24/08/2023,04:54:27,0.001,0.0,0.0,0.0
24/08/2023,04:55:28,0.001,0.0,0.0,0.0
24/08/2023,04:56:27,0.002,0.0,0.0,0.0
24/08/2023,04:57:28,0.001,0.0,0.0,0.0
24/08/2023,04:58:28,0.001,0.0,0.0,0.0
24/08/2023,04:59:26,0.001,0.0,0.0,0.0
24/08/2023,05:00:25,0.001,0.0,0.0,0.0
24/08/2023,05:01:27,0.002,0.0,0.0,0.0
24/08/2023,05:02:28,0.001,0.0,0.0,0.0
24/08/2023,05:03:28,0.002,0.0,0.0,0.0
24/08/2023,05:04:26,0.001,0.0,0.0,0.0
24/08/2023,05:05:26,0.002,0.0,0.0,0.0
24/08/2023,05:06:28,0.003,0.0,0.0,0.0
24/08/2023,05:07:28,0.002,0.0,0.0,0.0
24/08/2023,05:08:28,0.001,0.0,0.0,0.0
24/08/2023,05:09:28,0.002,0.0,0.0,0.0
24/08/2023,05:10:28,0.002,0.0,0.0,0.0
24/08/2023,05:11:28,0.001,0.0,0.0,0.0
24/08/2023,05:12:27,0.002,0.0,0.0,0.0
24/08/2023,05:13:28,0.002,0.0,0.0,0.0
24/08/2023,05:14:28,0.003,0.0,0.0,0.0
24/08/2023,05:15:27,0.003,0.0,0.0,0.0
24/08/2023,05:16:28,0.002,0.0,0.0,0.0
24/08/2023,05:17:27,0.005,0.0,0.0,0.0
24/08/2023,05:18:28,0.003,0.0,0.0,0.0
24/08/2023,05:19:27,0.004,0.0,0.0,0.0
24/08/2023,05:20:28,0.005,0.0,0.0,0.0
24/08/2023,05:21:27,0.005,0.0,0.0,0.0
24/08/2023,05:22:28,0.005,0.0,0.0,0.0
24/08/2023,05:23:27,0.005,0.0,0.0,0.0
24/08/2023,05:24:28,0.006,0.0,0.0,0.0
24/08/2023,05:25:28,0.006,0.0,0.0,0.0
24/08/2023,05:26:28,0.007,0.0,0.0,0.0
24/08/2023,05:27:28,0.006,0.0,0.0,0.0
24/08/2023,05:28:28,0.006,0.0,0.0,0.0
24/08/2023,05:29:28,0.007,0.0,0.0,0.0
24/08/2023,05:30:28,0.006,0.0,0.0,0.0
24/08/2023,05:31:28,0.007,0.0,0.001,0.001
24/08/2023,05:32:28,0.007,0.0,0.001,0.0
24/08/2023,05:33:28,0.007,0.0,0.001,0.0
24/08/2023,05:34:28,0.007,0.0,0.001,0.0
24/08/2023,05:35:28,0.008,0.0,0.001,0.0
24/08/2023,05:36:27,0.009,0.0,0.001,0.0
24/08/2023,05:37:28,0.008,0.0,0.001,0.0
24/08/2023,05:38:28,0.009,0.0,0.001,0.0
24/08/2023,05:39:28,0.009,0.0,0.001,0.0
24/08/2023,05:40:28,0.008,0.0,0.002,0.001
24/08/2023,05:41:28,0.009,0.0,0.002,0.0
24/08/2023,05:42:28,0.009,0.0,0.002,0.0
24/08/2023,05:43:28,0.009,0.0,0.002,0.0
24/08/2023,05:44:28,0.009,0.0,0.002,0.0
24/08/2023,05:45:28,0.009,0.0,0.002,0.0
24/08/2023,05:46:28,0.010,0.0,0.003,0.001
24/08/2023,05:47:28,0.010,0.0,0.003,0.0
24/08/2023,05:48:27,0.010,0.0,0.003,0.0
24/08/2023,05:49:27,0.011,0.0,0.003,0.0
24/08/2023,05:50:28,0.011,0.0,0.003,0.0
24/08/2023,05:51:28,0.012,0.0,0.003,0.0
24/08/2023,05:52:27,0.012,0.0,0.004,0.001
24/08/2023,05:53:27,0.013,0.0,0.004,0.0
24/08/2023,05:54:28,0.012,0.0,0.004,0.0
24/08/2023,05:55:28,0.011,0.0,0.004,0.0
24/08/2023,05:56:28,0.014,0.0,0.004,0.0
24/08/2023,05:57:26,0.014,0.0,0.005,0.001
24/08/2023,05:58:26,0.015,0.0,0.005,0.0
24/08/2023,05:59:28,0.015,0.0,0.005,0.0
24/08/2023,06:00:28,0.017,0.0,0.005,0.0
24/08/2023,06:01:26,0.017,0.0,0.006,0.001
24/08/2023,06:02:26,0.019,0.0,0.006,0.0
24/08/2023,06:03:28,0.020,0.0,0.006,0.0
24/08/2023,06:04:28,0.022,0.0,0.007,0.001
24/08/2023,06:05:28,0.024,0.0,0.007,0.0
24/08/2023,06:06:27,0.024,0.0,0.007,0.0
24/08/2023,06:07:28,0.025,0.0,0.008,0.001
24/08/2023,06:08:28,0.026,0.0,0.008,0.0
24/08/2023,06:09:28,0.027,0.0,0.009,0.001
24/08/2023,06:10:28,0.028,0.0,0.009,0.0
24/08/2023,06:11:28,0.028,0.0,0.01,0.001
24/08/2023,06:12:27,0.030,0.0,0.01,0.0
24/08/2023,06:13:28,0.030,0.0,0.011,0.001
24/08/2023,06:14:28,0.031,0.0,0.011,0.0
24/08/2023,06:15:28,0.033,0.0,0.012,0.001
24/08/2023,06:16:28,0.032,0.0,0.012,0.0
24/08/2023,06:17:28,0.034,0.0,0.013,0.001
24/08/2023,06:19:28,0.036,0.0,0.014,0.001
24/08/2023,06:20:27,0.038,0.0,0.015,0.001
24/08/2023,06:21:28,0.038,0.0,0.015,0.0
24/08/2023,06:22:28,0.039,0.0,0.016,0.001
24/08/2023,06:23:28,0.041,0.0,0.016,0.0
24/08/2023,06:24:28,0.042,0.0,0.017,0.001
24/08/2023,06:25:28,0.046,0.0,0.018,0.001
24/08/2023,06:26:28,0.047,0.0,0.019,0.001
24/08/2023,06:27:28,0.052,0.0,0.019,0.0
24/08/2023,06:28:28,0.055,0.0,0.02,0.001
24/08/2023,06:29:28,0.058,0.0,0.021,0.001
24/08/2023,06:30:28,0.061,0.0,0.022,0.001
24/08/2023,06:31:28,0.063,0.0,0.023,0.001
24/08/2023,06:32:28,0.065,0.0,0.024,0.001
24/08/2023,06:33:28,0.066,0.0,0.026,0.002
24/08/2023,06:34:28,0.068,0.0,0.027,0.001
24/08/2023,06:35:28,0.069,0.0,0.028,0.001
24/08/2023,06:36:28,0.070,0.0,0.029,0.001
24/08/2023,06:37:28,0.072,0.0,0.03,0.001
24/08/2023,06:38:28,0.073,0.0,0.031,0.001
24/08/2023,06:39:28,0.076,0.0,0.033,0.002
24/08/2023,06:40:28,0.076,0.0,0.034,0.001
24/08/2023,06:41:28,0.077,0.0,0.035,0.001
24/08/2023,06:42:28,0.078,0.0,0.036,0.001
24/08/2023,06:43:28,0.081,0.0,0.038,0.002
24/08/2023,06:44:28,0.085,0.0,0.039,0.001
24/08/2023,06:45:28,0.086,0.0,0.04,0.001
24/08/2023,06:46:28,0.090,0.0,0.042,0.002
24/08/2023,06:47:27,0.093,0.0,0.043,0.001
24/08/2023,06:48:28,0.094,0.0,0.045,0.002
24/08/2023,06:49:28,0.097,0.0,0.047,0.002
24/08/2023,06:50:28,0.099,0.0,0.048,0.001
24/08/2023,06:51:28,0.102,0.0,0.05,0.002
24/08/2023,06:52:28,0.105,0.0,0.052,0.002
24/08/2023,06:53:28,0.108,0.0,0.053,0.001
24/08/2023,06:54:28,0.111,0.0,0.055,0.002
24/08/2023,06:55:28,0.114,0.0,0.057,0.002
24/08/2023,06:56:28,0.115,0.0,0.059,0.002
24/08/2023,06:57:28,0.116,0.0,0.061,0.002
24/08/2023,06:58:28,0.114,0.0,0.063,0.002
24/08/2023,06:59:28,0.113,0.0,0.065,0.002
24/08/2023,07:00:28,0.111,0.0,0.067,0.002
24/08/2023,07:01:28,0.106,0.0,0.068,0.001
24/08/2023,07:02:28,0.105,0.0,0.07,0.002
24/08/2023,07:03:28,0.103,0.0,0.072,0.002
24/08/2023,07:04:28,0.103,0.0,0.074,0.002
24/08/2023,07:05:28,0.104,0.0,0.075,0.001
24/08/2023,07:06:28,0.104,0.0,0.077,0.002
24/08/2023,07:07:26,0.107,0.0,0.079,0.002
24/08/2023,07:08:26,0.108,0.0,0.081,0.002
24/08/2023,07:09:28,0.111,0.0,0.082,0.001
24/08/2023,07:10:28,0.115,0.0,0.084,0.002
24/08/2023,07:11:28,0.117,0.0,0.086,0.002
24/08/2023,07:12:28,0.120,0.0,0.088,0.002
24/08/2023,07:13:28,0.124,0.0,0.09,0.002
24/08/2023,07:14:28,0.128,0.0,0.092,0.002
24/08/2023,07:15:28,0.130,0.0,0.095,0.003
24/08/2023,07:16:28,0.134,0.0,0.097,0.002
24/08/2023,07:17:27,0.140,0.0,0.099,0.002
24/08/2023,07:18:31,0.145,0.0,0.102,0.003
24/08/2023,07:19:28,0.148,0.0,0.104,0.002
24/08/2023,07:20:28,0.150,0.0,0.106,0.002
24/08/2023,07:21:28,0.151,0.0,0.109,0.003
24/08/2023,07:22:28,0.150,0.0,0.111,0.002
24/08/2023,07:23:28,0.149,0.0,0.114,0.003
24/08/2023,07:24:28,0.149,0.0,0.116,0.002
24/08/2023,07:25:28,0.149,0.0,0.119,0.003
24/08/2023,07:26:28,0.151,0.0,0.121,0.002
24/08/2023,07:27:28,0.154,0.0,0.124,0.003
24/08/2023,07:28:28,0.156,0.0,0.126,0.002
24/08/2023,08:30:30,0.403,1.0,0.38,0.254
24/08/2023,08:31:30,0.387,1.0,0.386,0.006
24/08/2023,08:32:28,0.371,1.0,0.392,0.006
24/08/2023,08:33:29,0.366,1.0,0.399,0.007
24/08/2023,08:34:28,0.370,1.0,0.405,0.006
24/08/2023,08:35:27,0.378,1.0,0.411,0.006
24/08/2023,08:36:50,0.398,1.0,0.42,0.009
24/08/2023,08:38:25,0.432,1.0,0.431,0.011
24/08/2023,08:39:28,0.464,1.0,0.439,0.008
24/08/2023,08:40:28,0.555,1.0,0.447,0.008
24/08/2023,08:41:28,0.537,1.0,0.456,0.009
24/08/2023,08:42:28,0.501,1.0,0.465,0.009
24/08/2023,08:43:28,0.508,1.0,0.473,0.008
24/08/2023,08:44:28,0.591,1.0,0.482,0.009
24/08/2023,08:45:28,0.724,2.0,0.493,0.011
24/08/2023,08:46:28,0.704,2.0,0.505,0.012
24/08/2023,08:47:28,0.658,2.0,0.517,0.012
24/08/2023,08:48:28,0.821,2.0,0.529,0.012
24/08/2023,08:49:28,0.845,2.0,0.542,0.013
24/08/2023,08:50:28,0.823,2.0,0.556,0.014
24/08/2023,08:51:28,0.836,2.0,0.569,0.013
24/08/2023,08:52:27,0.840,2.0,0.583,0.014
24/08/2023,08:53:29,0.754,2.0,0.597,0.014
24/08/2023,08:54:28,0.850,2.0,0.61,0.013
24/08/2023,08:55:28,0.761,2.0,0.623,0.013
24/08/2023,08:56:28,0.815,2.0,0.637,0.014
24/08/2023,08:57:26,0.885,2.0,0.651,0.014
24/08/2023,08:58:26,0.854,2.0,0.666,0.015
24/08/2023,08:59:28,0.688,2.0,0.679,0.013
24/08/2023,09:00:28,0.719,2.0,0.691,0.012
24/08/2023,09:01:29,0.620,1.0,0.702,0.011
24/08/2023,09:02:28,0.581,1.0,0.712,0.01
24/08/2023,09:03:26,0.582,1.0,0.721,0.009
24/08/2023,09:04:26,0.614,1.0,0.731,0.01
24/08/2023,09:05:28,0.936,2.0,0.743,0.012
24/08/2023,09:06:29,0.969,2.0,0.759,0.016
24/08/2023,09:07:28,0.934,2.0,0.776,0.017
24/08/2023,14:05:44,1.322,3.0,7.986,7.21
24/08/2023,14:17:31,0.922,2.0,8.208,0.222
24/08/2023,14:18:52,0.884,2.0,8.229,0.021
24/08/2023,14:20:30,0.847,2.0,8.252,0.023
24/08/2023,14:21:28,0.816,2.0,8.265,0.013
24/08/2023,14:22:29,0.787,2.0,8.279,0.014
24/08/2023,14:23:26,0.791,2.0,8.291,0.012
24/08/2023,14:24:27,0.816,2.0,8.305,0.014
24/08/2023,14:25:29,0.824,2.0,8.319,0.014
24/08/2023,14:26:29,1.146,3.0,8.334,0.015
24/08/2023,14:27:29,1.196,3.0,8.353,0.019
24/08/2023,14:28:29,1.309,3.0,8.373,0.02
24/08/2023,14:29:26,1.304,3.0,8.394,0.021
24/08/2023,14:30:27,1.003,2.0,8.413,0.019
24/08/2023,14:31:28,1.121,3.0,8.43,0.017
24/08/2023,14:32:29,0.969,2.0,8.447,0.017
24/08/2023,14:33:29,0.928,2.0,8.463,0.016
24/08/2023,14:34:28,0.894,2.0,8.478,0.015
24/08/2023,14:35:29,0.841,2.0,8.492,0.014
24/08/2023,14:36:28,0.827,2.0,8.506,0.014
24/08/2023,14:37:28,1.060,2.0,8.523,0.017
24/08/2023,14:38:28,1.191,3.0,8.54,0.017
24/08/2023,14:39:29,1.133,3.0,8.56,0.02
24/08/2023,14:40:28,1.159,3.0,8.579,0.019
24/08/2023,14:41:28,1.140,3.0,8.598,0.019
24/08/2023,14:42:27,1.112,3.0,8.616,0.018
24/08/2023,14:43:26,1.051,2.0,8.634,0.018
24/08/2023,14:44:29,1.116,3.0,8.653,0.019
24/08/2023,14:45:28,1.154,3.0,8.671,0.018
24/08/2023,14:46:29,1.142,3.0,8.69,0.019
24/08/2023,14:47:29,1.117,3.0,8.71,0.02
24/08/2023,14:48:29,1.107,3.0,8.727,0.017
24/08/2023,14:49:29,1.027,2.0,8.745,0.018
24/08/2023,14:50:29,1.019,2.0,8.762,0.017
24/08/2023,14:51:28,1.020,2.0,8.778,0.016
24/08/2023,14:52:28,0.920,2.0,8.795,0.017
24/08/2023,14:53:29,1.034,2.0,8.811,0.016
24/08/2023,14:54:29,0.846,2.0,8.826,0.015
24/08/2023,14:55:28,1.038,2.0,8.842,0.016
24/08/2023,14:56:29,0.930,2.0,8.857,0.015
24/08/2023,14:57:58,0.691,2.0,8.876,0.019
24/08/2023,14:59:29,0.658,2.0,8.893,0.017
24/08/2023,15:00:28,0.647,1.0,8.904,0.011
24/08/2023,15:01:29,0.642,1.0,8.915,0.011
24/08/2023,15:02:28,0.802,2.0,8.926,0.011
24/08/2023,15:03:29,0.904,2.0,8.941,0.015
24/08/2023,15:04:28,0.922,2.0,8.956,0.015
24/08/2023,15:05:29,0.920,2.0,8.971,0.015
24/08/2023,15:06:28,0.773,2.0,8.986,0.015
24/08/2023,15:07:29,0.623,1.0,8.997,0.011
24/08/2023,15:08:28,0.611,1.0,9.008,0.011
24/08/2023,15:09:28,0.696,2.0,9.019,0.011
24/08/2023,15:10:29,0.688,2.0,9.031,0.012
24/08/2023,15:11:29,0.865,2.0,9.045,0.014
24/08/2023,15:12:29,0.607,1.0,9.056,0.011
24/08/2023,15:13:29,0.582,1.0,9.066,0.01
24/08/2023,15:14:29,0.552,1.0,9.076,0.01
24/08/2023,15:15:29,0.536,1.0,9.085,0.009
24/08/2023,15:16:28,0.532,1.0,9.094,0.009
24/08/2023,15:17:28,0.530,1.0,9.102,0.008
24/08/2023,15:18:27,0.535,1.0,9.111,0.009
24/08/2023,15:19:26,0.544,1.0,9.12,0.009
24/08/2023,15:20:28,0.562,1.0,9.129,0.009
24/08/2023,15:21:27,0.636,1.0,9.139,0.01
24/08/2023,15:22:26,0.731,2.0,9.15,0.011
24/08/2023,15:23:28,0.793,2.0,9.164,0.014
24/08/2023,15:24:29,0.785,2.0,9.177,0.013
24/08/2023,15:25:28,0.783,2.0,9.19,0.013
24/08/2023,15:26:28,0.593,1.0,9.202,0.012
24/08/2023,15:27:29,0.603,1.0,9.212,0.01
24/08/2023,15:28:29,0.566,1.0,9.222,0.01
24/08/2023,15:29:30,0.587,1.0,9.232,0.01
24/08/2023,15:30:29,0.607,1.0,9.243,0.011
24/08/2023,15:31:29,0.552,1.0,9.252,0.009
24/08/2023,15:32:29,0.534,1.0,9.261,0.009
24/08/2023,15:33:29,0.514,1.0,9.27,0.009
24/08/2023,15:34:29,0.499,1.0,9.279,0.009
24/08/2023,15:35:28,0.487,1.0,9.287,0.008
24/08/2023,15:36:28,0.471,1.0,9.295,0.008
24/08/2023,15:37:29,0.455,1.0,9.303,0.008
24/08/2023,15:38:28,0.436,1.0,9.31,0.007
24/08/2023,15:39:28,0.419,1.0,9.317,0.007
24/08/2023,15:40:29,0.404,1.0,9.324,0.007
24/08/2023,15:41:29,0.389,1.0,9.331,0.007
24/08/2023,15:42:29,0.382,1.0,9.337,0.006
24/08/2023,15:43:28,0.369,1.0,9.343,0.006
24/08/2023,15:44:29,0.362,1.0,9.349,0.006
24/08/2023,15:45:28,0.359,1.0,9.355,0.006
24/08/2023,15:46:29,0.349,1.0,9.361,0.006
24/08/2023,15:47:29,0.343,1.0,9.367,0.006
24/08/2023,15:48:29,0.342,1.0,9.373,0.006
24/08/2023,15:49:29,0.342,1.0,9.378,0.005
24/08/2023,15:50:29,0.366,1.0,9.384,0.006
24/08/2023,15:51:29,0.333,1.0,9.39,0.006
24/08/2023,15:52:28,0.345,1.0,9.396,0.006
24/08/2023,15:53:29,0.370,1.0,9.402,0.006
24/08/2023,15:54:28,0.401,1.0,9.408,0.006
24/08/2023,15:55:29,0.416,1.0,9.415,0.007
24/08/2023,15:56:29,0.413,1.0,9.422,0.007
24/08/2023,15:57:28,0.402,1.0,9.429,0.007
24/08/2023,15:58:49,0.393,1.0,9.437,0.008
24/08/2023,15:59:26,0.369,1.0,9.441,0.004
24/08/2023,16:00:29,0.379,1.0,9.448,0.007
24/08/2023,16:01:29,0.325,1.0,9.453,0.005
24/08/2023,16:02:29,0.307,1.0,9.458,0.005
24/08/2023,16:03:30,0.295,1.0,9.464,0.006
24/08/2023,16:04:28,0.284,1.0,9.468,0.004
24/08/2023,16:05:28,0.277,1.0,9.473,0.005
24/08/2023,16:06:29,0.270,1.0,9.478,0.005
24/08/2023,16:07:28,0.264,1.0,9.482,0.004
24/08/2023,16:08:29,0.259,1.0,9.486,0.004
24/08/2023,16:09:28,0.252,1.0,9.491,0.005
24/08/2023,16:10:28,0.243,1.0,9.495,0.004
24/08/2023,16:11:29,0.226,1.0,9.499,0.004
24/08/2023,16:12:28,0.213,0.0,9.502,0.003
24/08/2023,16:13:29,0.203,0.0,9.506,0.004
24/08/2023,16:14:29,0.195,0.0,9.509,0.003
24/08/2023,16:15:29,0.188,0.0,9.512,0.003